This is the latest recevied weather packets stored in our database for station/object KD7KCN-5. If no packets are shown the sender has not sent any weather packets the latest 10 day(s).
| Time | Temp. | Humidity | Pressure | Rain* | Wind** | Luminosity | Snow |
|---|---|---|---|---|---|---|---|
| 1777914713 | 14.44° C | 46% | 1010.6 hPa | 0 mm | - | 234 W/m² | - |
| 1777914112 | 14.44° C | 46% | 1010.5 hPa | 0 mm | - | 281 W/m² | - |
| 1777913511 | 14.44° C | 46% | 1010.5 hPa | 0 mm | - | 193 W/m² | - |
| 1777912911 | 14.44° C | 46% | 1010.5 hPa | 0 mm | - | 311 W/m² | - |
| 1777912311 | 14.44° C | 46% | 1010.2 hPa | 0 mm | - | 237 W/m² | - |
| 1777911711 | 14.44° C | 45% | 1010.5 hPa | 0 mm | - | 230 W/m² | - |
| 1777911111 | 15° C | 45% | 1010.3 hPa | 0 mm | - | 292 W/m² | - |
| 1777910512 | 14.44° C | 44% | 1010.5 hPa | 0 mm | - | 316 W/m² | - |
| 1777909911 | 14.44° C | 45% | 1010.4 hPa | 0 mm | - | 223 W/m² | - |
| 1777909311 | 14.44° C | 45% | 1010.3 hPa | 0 mm | - | 250 W/m² | - |
| 1777908713 | 13.89° C | 46% | 1010.4 hPa | 0 mm | - | 204 W/m² | - |
| 1777908111 | 13.89° C | 46% | 1010.4 hPa | 0 mm | - | 172 W/m² | - |
| 1777907512 | 14.44° C | 45% | 1010.3 hPa | 0 mm | - | 179 W/m² | - |
| 1777906911 | 13.89° C | 46% | 1010.3 hPa | 0 mm | - | 197 W/m² | - |
| 1777905711 | 13.33° C | 50% | 1010.3 hPa | 0 mm | - | 441 W/m² | - |
| 1777905112 | 13.33° C | 53% | 1010.4 hPa | 0 mm | - | 178 W/m² | - |
| 1777903912 | 12.22° C | 53% | 1010.4 hPa | 0 mm | - | 90 W/m² | - |
| 1777903312 | 12.22° C | 54% | 1010.5 hPa | 0 mm | - | 88 W/m² | - |
| 1777902711 | 12.22° C | 52% | 1010.4 hPa | 0 mm | - | 42 W/m² | - |
| 1777902112 | 12.22° C | 51% | 1010.4 hPa | 0 mm | - | 83 W/m² | - |
| 1777901512 | 12.78° C | 50% | 1010.2 hPa | 0 mm | - | 33 W/m² | - |
| 1777900312 | 12.22° C | 50% | 1009.8 hPa | 0 mm | - | 51 W/m² | - |
| 1777899712 | 12.22° C | 50% | 1009.7 hPa | 0 mm | - | 19 W/m² | - |
| 1777899112 | 12.22° C | 50% | 1009.4 hPa | 0 mm | - | 9 W/m² | - |
| 1777898512 | 12.22° C | 49% | 1009.5 hPa | 0 mm | - | 0 W/m² | - |
* Rain latest hour (hover to see other rain measurements)
** Current wind speed in m/s (hover to see current wind gust speed)